Location: Newark
(50.4348°N, 30.5552°E)
Time: 14:39:30
(UTC+00:00)

Courier 1B Rocket - Pass Details

Date: 02 February 2020
Orbit: 920 x 1202 km, 28.2° (Epoch: 29 February)

Event Time Altitude Azimuth Distance (km) Brightness Sun altitude
Rises 08:27:04 0° 232° (SW) 4,072 8.4 18.8°
Reaches altitude 10° 08:32:13 10° 204° (SSW) 3,068 8.3 19.2°
Maximum altitude 08:34:48 12° 184° (S) 2,892 8.8 19.4°
Drops below altitude 10° 08:37:21 10° 163° (SSE) 3,010 9.8 19.5°
Sets 08:42:15 0° 135° (SE) 3,900 9.4 19.8°
